Terminal Aerodrome Forecast
Issued by NWS Atlanta, GA

Home | Current Version | Previous Version | Text Only | Print | Product List | Glossary On
Versions: 1 2 3 4 5 6 7 8 9 10 11 12 13 14 15 16 17 18 19 20 21 22 23 24 25 26 27 28 29 30 31 32 33 34 35 36 37
957
FTUS42 KFFC 251139
TAFATL
TAF
KATL 251139Z 2512/2618 14006KT P6SM SCT045
     FM251500 16010KT P6SM BKN050
     FM252300 14007KT P6SM VCSH BKN035
     FM260300 14009KT 6SM -SHRA BKN025 PROB30 2603/2609 4SM TSRA
      BKN025CB
     FM261400 17009KT P6SM -SHRA BKN020=

USA.gov is the U.S. government's official web portal to all federal, state and local government web resources and services.